User: anonymous   Login
Location: Cicognara
(44.9500°N, 10.4667°E)
Time: 03:53:27
(UTC+00:00)
Language:

Cosmos 389 Rocket - Orbit

View from above orbital plane
View from above orbital plane
View from above satellite
View from above satellite

Ground track
Ground track

The orbit data is extracted from the following two-line orbital elements,

1 04814U 70113B   21264.52320377  .00002118  00000-0  57216-4 0  9990
2 04814  81.1420 322.4155 0024347 120.7817 239.5824 15.36948041773914
Epoch (UTC): 21 September 2021 12:33:24
Eccentricity: 0.0024347
inclination: 81.1420°
perigee height: 438 km
apogee height: 472 km
right ascension of ascending node: 322.4155°
argument of perigee: 120.7817°
revolutions per day: 15.36948041
mean anomaly at epoch: 239.5824°
orbit number at epoch: 77391

The dashed part of the orbit path shows where the satellite is in the earth's shadow,  

DLR